FENGYUN 1C DEB

Satellite information

Favourite Embed

Satellite Type and Status

DEBRISIN ORBIT

Key statistics

Satellite FENGYUN 1C DEB at a glance.

Uptime

9715

Days in orbit

Revolutions

≈ 14.1

Per day

Orbit

SSO

Sun Synchronous Orbit

Inclination

98.7

Latest

Satellite identification and parameters

Extended collection of information and parameters for FENGYUN 1C DEB.

Object identification

Identified? True

Debris? True

Object name: FENGYUN 1C DEB

International designator: 1999-025CY

Object number (NORAD): 29806

Object ID (CCSDS): 29806

Country: PEOPLES REPUBLIC OF CHINA (PRC)

Current information (Y/N): Y

RCS size: SMALL

Orbital parameters

Period: 101.982 minutes

Inclination: 98.7128 deg

SMA: 7230.642 km

Apoapsis: 872.49 km

Periapsis: 832.525 km

RAAN: 3.3058 deg

Eccentricy: 0.00276358

Argument of periapsis: 249.5652 deg

Mean anomaly: 273.8734 deg

Mean motion: 14.1200889 rev/day

Mean motion (dot): 0.00001345 rev/day2

B* drag term: 0.00075529061 1/REarth

Two-line elements (TLE)

Creation date: Dec. 14, 2025, 3:07 a.m.

Reference frame: TEME

Reference center: EARTH

Epoch: Dec. 13, 2025, 12:55 p.m. UTC

TLE line 0: 0 FENGYUN 1C DEB

TLE line 1: 1 29806U 99025CY 25347.53882351 .00001345 00000-0 75529-3 0 9990

TLE line 2: 2 29806 98.7128 3.3058 0027636 249.5652 273.8734 14.12008890971507

Live tracking on map

Real-time ground track for satellite FENGYUN 1C DEB.

In-orbit conjunctions

A list of the most updated potential collisions computed for object FENGYUN 1C DEB.

Target Orbit TCA Probability of collision Miss distance Type
SL-16 R/B DEB LEO 2025-12-07 22:56:03 0.000112617 897.0 (m) DEBRIS
SL-16 R/B LEO 2025-03-27 19:29:09 0.0004874052 156.0 (m) ROCKET BODY

Associated space launch

Chinese polar orbiting meteorological satellite

FENGYUN 1C DEB was lifted into orbit during the mission ‘Long March 4B | Feng Yun 1C’, on board a Long March 4B space rocket.

The launch took place on May 10, 1999, 1:33 a.m. from Launch Complex 7.

For more information about the launch, click the button.

Launch to space Long March 4B | Feng Yun 1C
Long March 4B | Feng Yun 1C

Agency: N/A

Status: Launch Successful

Launch date: May 10, 1999, 1:33 a.m. UTC

Rocket: Long March 4B

Launch pad: Launch Complex 7

Location: Taiyuan Satellite Launch Center, People's Republic of China

...

Latest news about this satellite

There are no fresh news available about this satellite. Check back as we update our databases every day.


Newsletter sign-up

Weekly statistics, charts and insights to help you stay on top of the space industry.